• In Uzbekistan
  • List of Countries
  • For 7 days
  • Water Temperature
  • Satellite Maps
  • Weather Map
  • Weather Widgets
  • user-avatar
    Login

    Hourly Weather Etchmiadzin

    Today, 24 May, Friday

    Time Temperature Precipitation Wind Pressure Humidity
    00:00 +19°C° 0.1 mm 1 mps 686 mmHg 63%
    01:00 +19°C° 0.1 mm 1 mps 686 mmHg 64%
    02:00 +18°C° 0.1 mm 1 mps 686 mmHg 65%
    03:00 +18°C° 0 mm 1 mps 686 mmHg 66%
    04:00 +17°C° 0 mm 2 mps 686 mmHg 64%
    05:00 +18°C° 0 mm 2 mps 686 mmHg 63%
    06:00 +18°C° 0 mm 2 mps 686 mmHg 62%
    07:00 +20°C° 0 mm 2 mps 686 mmHg 56%
    08:00 +22°C° 0 mm 3 mps 686 mmHg 51%
    09:00 +24°C° 0 mm 3 mps 686 mmHg 45%
    10:00 +25°C° 0 mm 3 mps 686 mmHg 43%
    11:00 +26°C° 0 mm 3 mps 686 mmHg 41%
    12:00 +28°C° 0 mm 3 mps 686 mmHg 38%
    13:00 +28°C° 0.3 mm 3 mps 686 mmHg 37%
    14:00 +29°C° 0.3 mm 2 mps 686 mmHg 35%
    15:00 +29°C° 0.3 mm 2 mps 686 mmHg 33%
    16:00 +29°C° 0.2 mm 2 mps 686 mmHg 34%
    17:00 +29°C° 0.2 mm 2 mps 686 mmHg 34%
    18:00 +29°C° 0.2 mm 1 mps 686 mmHg 34%
    19:00 +27°C° 0.2 mm 2 mps 687 mmHg 38%
    20:00 +25°C° 0.2 mm 2 mps 687 mmHg 43%
    21:00 +21°C° 0.2 mm 3 mps 687 mmHg 47%
    22:00 +21°C° 0.1 mm 3 mps 687 mmHg 47%
    23:00 +21°C° 0.1 mm 3 mps 687 mmHg 48%

    Tomorrow, 25 May, Saturday

    Time Temperature Precipitation Wind Pressure Humidity
    00:00 +20°C° 0.1 mm 3 mps 687 mmHg 48%
    01:00 +20°C° 0 mm 2 mps 687 mmHg 47%
    02:00 +20°C° 0 mm 2 mps 687 mmHg 46%
    03:00 +19°C° 0 mm 2 mps 687 mmHg 45%
    04:00 +20°C° 0 mm 2 mps 687 mmHg 43%
    05:00 +20°C° 0 mm 2 mps 687 mmHg 41%
    06:00 +21°C° 0 mm 2 mps 688 mmHg 40%
    07:00 +24°C° 0 mm 3 mps 688 mmHg 35%
    08:00 +26°C° 0 mm 3 mps 688 mmHg 31%
    09:00 +28°C° 0 mm 3 mps 688 mmHg 27%
    10:00 +29°C° 0 mm 4 mps 688 mmHg 25%
    11:00 +32°C° 0 mm 4 mps 687 mmHg 24%
    12:00 +33°C° 0 mm 5 mps 687 mmHg 22%
    13:00 +33°C° 0.1 mm 4 mps 687 mmHg 22%
    14:00 +33°C° 0.1 mm 4 mps 687 mmHg 22%
    15:00 +33°C° 0.1 mm 4 mps 687 mmHg 22%
    16:00 +32°C° 0.3 mm 4 mps 686 mmHg 26%
    17:00 +29°C° 0.3 mm 4 mps 686 mmHg 30%
    18:00 +28°C° 0.3 mm 4 mps 685 mmHg 34%
    19:00 +26°C° 0.2 mm 4 mps 686 mmHg 37%
    20:00 +24°C° 0.2 mm 3 mps 686 mmHg 40%
    21:00 +22°C° 0.2 mm 3 mps 686 mmHg 42%
    22:00 +21°C° 0.1 mm 2 mps 686 mmHg 44%
    23:00 +21°C° 0.1 mm 2 mps 686 mmHg 46%

    Day after tomorrow, 26 May, Sunday

    Time Temperature Precipitation Wind Pressure Humidity
    00:00 +20°C° 0.1 mm 2 mps 686 mmHg 48%
    01:00 +20°C° 0 mm 2 mps 686 mmHg 49%
    02:00 +19°C° 0 mm 2 mps 686 mmHg 49%
    03:00 +19°C° 0 mm 2 mps 685 mmHg 50%
    04:00 +19°C° 0 mm 2 mps 685 mmHg 50%
    05:00 +20°C° 0 mm 2 mps 686 mmHg 49%
    06:00 +20°C° 0 mm 2 mps 686 mmHg 49%
    07:00 +23°C° 0 mm 2 mps 686 mmHg 43%
    08:00 +25°C° 0 mm 2 mps 686 mmHg 38%
    09:00 +27°C° 0 mm 2 mps 686 mmHg 33%
    10:00 +28°C° 0 mm 3 mps 686 mmHg 31%
    11:00 +29°C° 0 mm 3 mps 686 mmHg 30%
    12:00 +30°C° 0 mm 4 mps 685 mmHg 29%
    13:00 +30°C° 0 mm 4 mps 685 mmHg 27%
    14:00 +31°C° 0 mm 3 mps 685 mmHg 26%
    15:00 +31°C° 0 mm 3 mps 685 mmHg 24%
    16:00 +30°C° 0 mm 3 mps 685 mmHg 26%
    17:00 +30°C° 0 mm 3 mps 685 mmHg 27%
    18:00 +29°C° 0 mm 2 mps 685 mmHg 29%
    19:00 +27°C° 0 mm 3 mps 685 mmHg 32%
    20:00 +25°C° 0 mm 3 mps 686 mmHg 35%
    21:00 +22°C° 0 mm 3 mps 686 mmHg 38%
    22:00 +21°C° 0.1 mm 3 mps 686 mmHg 43%
    23:00 +19°C° 0.1 mm 3 mps 687 mmHg 49%

    27 May, Monday

    Time Temperature Precipitation Wind Pressure Humidity
    00:00 +18°C° 0.1 mm 3 mps 687 mmHg 55%
    01:00 +18°C° 0.1 mm 3 mps 687 mmHg 56%
    02:00 +17°C° 0.1 mm 3 mps 687 mmHg 58%
    03:00 +17°C° 0.1 mm 2 mps 687 mmHg 59%
    04:00 +17°C° 0 mm 2 mps 687 mmHg 58%
    05:00 +18°C° 0 mm 2 mps 688 mmHg 57%
    06:00 +18°C° 0 mm 2 mps 688 mmHg 55%
    07:00 +20°C° 0 mm 2 mps 688 mmHg 49%
    08:00 +23°C° 0 mm 2 mps 688 mmHg 42%
    09:00 +25°C° 0 mm 2 mps 689 mmHg 35%
    10:00 +26°C° 0 mm 2 mps 689 mmHg 32%
    11:00 +27°C° 0 mm 2 mps 688 mmHg 29%
    12:00 +28°C° 0 mm 3 mps 688 mmHg 26%
    13:00 +28°C° 0 mm 2 mps 688 mmHg 25%
    14:00 +29°C° 0 mm 2 mps 688 mmHg 24%
    15:00 +29°C° 0 mm 2 mps 688 mmHg 23%
    16:00 +29°C° 0 mm 2 mps 688 mmHg 25%
    17:00 +29°C° 0 mm 1 mps 688 mmHg 27%
    18:00 +28°C° 0 mm 1 mps 688 mmHg 29%
    19:00 +26°C° 0 mm 2 mps 689 mmHg 33%
    20:00 +24°C° 0 mm 3 mps 689 mmHg 38%
    21:00 +21°C° 0 mm 3 mps 689 mmHg 42%
    22:00 +20°C° 0 mm 3 mps 690 mmHg 45%
    23:00 +19°C° 0 mm 3 mps 690 mmHg 48%

    28 May, Tuesday

    Time Temperature Precipitation Wind Pressure Humidity
    00:00 +19°C° 0 mm 3 mps 690 mmHg 51%
    01:00 +18°C° 0 mm 3 mps 690 mmHg 53%
    02:00 +18°C° 0 mm 2 mps 690 mmHg 55%
    03:00 +17°C° 0 mm 2 mps 689 mmHg 57%
    04:00 +17°C° 0 mm 2 mps 690 mmHg 57%
    05:00 +18°C° 0 mm 2 mps 690 mmHg 57%
    06:00 +19°C° 0 mm 2 mps 690 mmHg 56%
    07:00 +20°C° 0 mm 2 mps 690 mmHg 50%
    08:00 +23°C° 0 mm 1 mps 690 mmHg 44%
    09:00 +25°C° 0 mm 1 mps 691 mmHg 38%
    10:00 +26°C° 0 mm 1 mps 690 mmHg 35%
    11:00 +27°C° 0 mm 1 mps 690 mmHg 32%
    12:00 +29°C° 0 mm 1 mps 690 mmHg 29%
    13:00 +29°C° 0.1 mm 1 mps 690 mmHg 27%
    14:00 +30°C° 0.1 mm 1 mps 690 mmHg 26%
    15:00 +30°C° 0.1 mm 1 mps 690 mmHg 25%
    16:00 +29°C° 0.1 mm 2 mps 690 mmHg 28%
    17:00 +29°C° 0.1 mm 2 mps 690 mmHg 31%
    18:00 +28°C° 0.1 mm 3 mps 690 mmHg 34%
    19:00 +26°C° 0.1 mm 3 mps 690 mmHg 41%
    20:00 +24°C° 0.1 mm 3 mps 690 mmHg 48%
    21:00 +21°C° 0.1 mm 3 mps 691 mmHg 55%
    22:00 +20°C° 0 mm 3 mps 691 mmHg 57%
    23:00 +19°C° 0 mm 3 mps 690 mmHg 59%

    29 May, Wednesday

    Time Temperature Precipitation Wind Pressure Humidity
    00:00 +18°C° 0 mm 3 mps 690 mmHg 61%
    01:00 +18°C° 0 mm 3 mps 690 mmHg 62%
    02:00 +17°C° 0 mm 2 mps 690 mmHg 62%
    03:00 +17°C° 0 mm 2 mps 690 mmHg 62%
    04:00 +17°C° 0 mm 2 mps 690 mmHg 60%
    05:00 +18°C° 0 mm 2 mps 690 mmHg 58%
    06:00 +18°C° 0 mm 2 mps 690 mmHg 56%
    07:00 +20°C° 0 mm 2 mps 690 mmHg 49%
    08:00 +23°C° 0 mm 1 mps 690 mmHg 42%
    09:00 +25°C° 0 mm 1 mps 690 mmHg 35%
    10:00 +26°C° 0 mm 1 mps 690 mmHg 32%
    11:00 +28°C° 0 mm 1 mps 690 mmHg 28%
    12:00 +29°C° 0 mm 1 mps 690 mmHg 25%
    13:00 +30°C° 0 mm 1 mps 689 mmHg 24%
    14:00 +30°C° 0 mm 1 mps 689 mmHg 23%
    15:00 +31°C° 0 mm 1 mps 689 mmHg 22%
    16:00 +30°C° 0 mm 1 mps 689 mmHg 24%
    17:00 +30°C° 0 mm 1 mps 689 mmHg 26%
    18:00 +29°C° 0 mm 1 mps 689 mmHg 28%
    19:00 +27°C° 0.1 mm 2 mps 689 mmHg 35%
    20:00 +24°C° 0.1 mm 2 mps 689 mmHg 42%
    21:00 +21°C° 0.1 mm 2 mps 689 mmHg 49%
    22:00 +20°C° 0 mm 3 mps 689 mmHg 54%
    23:00 +20°C° 0 mm 3 mps 689 mmHg 58%
    Show more